Honda - doctelefilm.ru

найдено: 5147 роликов
Honda civic type r vtec 257 22.09.2017 00:00:30
История honda gold wing 455 22.09.2017 00:15:30
Honda civic eg3 тюнинг 565 21.09.2017 00:16:05
Демпфер на honda vfr800 6318 21.09.2017 00:02:44
Honda accord s type tuning 4256 21.09.2017 00:17:53
Honda accord за 200000 рублей 4852 21.09.2017 00:31:09
Мотоцикл honda cbr 300 146 21.09.2017 00:02:30
Honda odyssey rb1 на разбор 106 20.09.2017 00:02:01
Вертолет honda gx 160 18 20.09.2017 00:00:59
Honda prelude 1990 отзывы 219 20.09.2017 00:04:58
Honda crv 4 отзывы 141 20.09.2017 00:01:43
05 honda civic manual 360 20.09.2017 00:00:27
Honda civic 2003 hybrid 7 19.09.2017 00:00:23
Honda генератор 4 квт 194 18.09.2017 00:02:36
Фары honda vfr 800 152 18.09.2017 00:02:14
Honda hmmf 4 литра 714 18.09.2017 00:18:10
Honda civic колодки 1991 356 18.09.2017 00:02:58
2004 honda accord executive 4766 17.09.2017 00:16:58
Honda cb500f top speed 3805 17.09.2017 00:14:55
2012 honda cr v 2011 14009 17.09.2017 00:07:09
Tuning honda nc 750 283 17.09.2017 00:13:24
Honda cb 400 на запчасти 24777 17.09.2017 00:11:04
Honda модель hr v 1252 17.09.2017 00:02:15
Honda accord type s 2008 видео 1338 17.09.2017 00:21:09
Honda stream ест масло 58 17.09.2017 00:28:29
Honda accord torneo manual 1997 2002 219 17.09.2017 00:03:04
Honda prelude v bb 17 16.09.2017 00:00:53